[[{"header":{"parameterUnit":"m.s-1","parameterCategory":2,"la1":30.2991,"la2":30.254,"lo1":-89.0895,"lo2":-89.0444,"dy":0.0017,"dx":0.0017,"nx":28,"ny":28,"refTime":"2024-08-30T03:00:00:Z","depth":"0","parameterNumber":2,"parameterNumberName":"U-component_of_CURRENTS"},"data":[0,0,0,0,0,0,0,0,0,0,0,0,0,0,0,0,0,0,0,0,0,0,0,0,0,0,0,0,0,0,0,0,0,0,0,0,0,0,0,0,0,0,0,0,0,0,0,0,0,0,0,0,0,0,0,0,0,0,0.2765,0.2766,0,0.2797,0.2797,0.2797,0.279,0.279,0.279,0.279,0.2779,0.2779,0.2779,0,0,0,0,0,0,0,0,0,0,0,0,0,0.2693,0.2694,0.2765,0.2766,0.2767,0.2797,0.2797,0.2797,0.279,0.279,0.279,0.279,0.278,0.2779,0.2779,0,0,0,0,0,0,0,0,0,0,0,0,0,0.272,0.2694,0.2765,0.2771,0.2772,0.2797,0.2797,0.2797,0.2791,0.279,0.279,0.279,0.278,0.2779,0.2779,0.2783,0,0,0.2779,0.2779,0,0,0,0,0,0,0,0,0.2719,0.2722,0.2769,0.277,0.2772,0.2793,0.2768,0.2792,0.2791,0.2779,0.279,0.279,0.2783,0.2783,0.2784,0.2783,0.2782,0.2779,0.2779,0.2778,0.2778,0,0,0,0,0,0,0,0.2717,0.2721,0.2773,0.277,0.2772,0.2769,0.2773,0.2772,0.2778,0.278,0.278,0.2791,0.2783,0.2784,0.2783,0.2782,0.2779,0.2779,0.2778,0.2778,0.2837,0.2838,0,0,0,0,0,0,0.2723,0.2719,0.2772,0.2775,0.2749,0.2771,0.2775,0.2783,0.2779,0.278,0.2791,0.2791,0.2784,0.2783,0.2783,0.2839,0.2778,0.2778,0.2778,0.2835,0.2837,0.2839,0,0,0,0,0,0,0.2721,0.2727,0.2771,0.2751,0.2757,0.2773,0.2783,0.2784,0.2792,0.2789,0.2788,0.2799,0.2784,0.2783,0.2796,0.2836,0.2778,0.2778,0.2833,0.2836,0.2838,0.2917,0,0,0,0,0,0,0.2719,0.2726,0.2731,0.2752,0.2759,0.2795,0.2783,0.2785,0.28,0.28,0.2795,0.2793,0.2784,0.2797,0.2796,0.2835,0.2778,0.2831,0.2834,0.2837,0.2913,0.2922,0.293,0,0,0,0,0,0.2716,0.2723,0.2731,0.2738,0.2766,0.2796,0.2799,0.2806,0.2801,0.281,0.281,0.2794,0.2816,0.2798,0.2797,0.2836,0.2829,0.2833,0.2837,0.2909,0.292,0.293,0,0,0,0,0,0,0.2683,0.2724,0.2733,0.2749,0.2777,0.2797,0.2806,0.2813,0.2819,0.2817,0.2807,0.2807,0.2836,0.2823,0.2803,0.2863,0.2823,0.2827,0.2878,0.2889,0.2898,0.2885,0.2778,0,0,0,0,0,0.2683,0.2703,0.274,0.2752,0.277,0.279,0.2802,0.2811,0.2823,0.2825,0.2827,0.2832,0.285,0.2858,0.2863,0.289,0.2884,0.2917,0.2926,0.2934,0.2923,0.2956,0.2967,0.2851,0.2851,0.2851,0,0,0.2673,0.2698,0.2708,0.2748,0.2767,0.2799,0.2795,0.282,0.2844,0.2823,0.2849,0.2858,0.2863,0.29,0.2912,0.2894,0.2969,0.2939,0.2945,0.293,0.2961,0.2972,0.2982,0.2854,0.2853,0.2853,0,0,0.2667,0.2689,0.2709,0.274,0.2782,0.2802,0.2814,0.2845,0.2859,0.2889,0.289,0.2918,0.2936,0.2955,0.2966,0.3024,0.3013,0.3038,0.3074,0.3108,0.3117,0.3125,0.3152,0.3161,0.3045,0.3045,0.3045,0,0.2653,0.2684,0.2717,0.275,0.2773,0.2808,0.2833,0.2862,0.2893,0.2909,0.2905,0.2958,0.2962,0.3017,0.3044,0.3045,0.3058,0.3035,0.3119,0.3127,0.3134,0.3158,0.3168,0.3049,0.3049,0.3048,0.3048,0,0.2671,0.2698,0.2714,0.277,0.2797,0.2826,0.2877,0.2908,0.293,0.2957,0.301,0.3028,0.3056,0.3082,0.3081,0.3147,0.3141,0.3126,0.3091,0.315,0.3173,0.3182,0.3055,0.3054,0.3053,0.3052,0,0,0.2633,0.2711,0.2716,0.2749,0.281,0.2839,0.2887,0.2942,0.298,0.3022,0.3066,0.3119,0.3131,0.3144,0.3162,0.3199,0.3274,0.319,0.319,0.3213,0.3352,0.3357,0.3366,0.3282,0.3283,0.3285,0.3355,0,0.2636,0.2696,0.2728,0.2783,0.2822,0.2867,0.2912,0.2966,0.301,0.3065,0.3109,0.3156,0.3158,0.3183,0.3224,0.3262,0.3297,0.3256,0.3291,0.3292,0.3287,0.3377,0.3282,0.3337,0.3363,0.3364,0.3365,0,0.264,0.2686,0.2729,0.2808,0.2827,0.2855,0.293,0.2978,0.3061,0.3094,0.3149,0.3185,0.3259,0.3242,0.3334,0.3313,0.3333,0.3356,0.3359,0.3334,0.3313,0.3278,0.3352,0.3288,0.3378,0.3377,0.3376,0,0.2606,0.2686,0.2717,0.2745,0.2833,0.2851,0.2899,0.2976,0.3024,0.3111,0.3165,0.3233,0.3296,0.3329,0.3396,0.3368,0.3493,0.3452,0.3471,0.3471,0.3379,0.3369,0.3386,0.3499,0.3498,0.3498,0.3498,0,0.2597,0.2624,0.2705,0.2725,0.2769,0.2836,0.2881,0.2941,0.3028,0.3088,0.3178,0.325,0.3326,0.3412,0.3424,0.35,0.3518,0.3492,0.3498,0.3407,0.3399,0.3327,0.3287,0.3501,0.35,0.35,0.3499,0,0.254,0.2595,0.2638,0.2724,0.2747,0.2775,0.286,0.2899,0.3009,0.309,0.3124,0.3287,0.3407,0.3486,0.3564,0.3561,0.3516,0.3614,0.3507,0.3499,0.3426,0.3393,0.3264,0.316,0.3628,0.3629,0.3629,0,0.2515,0.2534,0.2612,0.2629,0.2655,0.2711,0.2739,0.2852,0.2896,0.3105,0.3139,0.3321,0.3415,0.3578,0.3617,0.3664,0.3545,0.3587,0.3504,0.343,0.3398,0.3241,0.315,0.3418,0.3417,0.3416,0.3415,0,0.2465,0.2483,0.2514,0.2556,0.258,0.2618,0.2676,0.2712,0.2851,0.2956,0.3097,0.3203,0.3423,0.3471,0.3593,0.3595,0.3426,0.3568,0.3514,0.3262,0.3067,0.2967,0.3364,0.3407,0.3408,0.3408,0.3409,0.3409,0.2409,0.2414,0.2454,0.2477,0.2499,0.2508,0.2504,0.2588,0.2663,0.2798,0.2969,0.3109,0.3311,0.3485,0.3471,0.3441,0.3378,0.3347,0.3324,0.318,0.3039,0.3428,0.3465,0.3466,0.3467,0.3468,0.3469,0,0.2359,0.2367,0.2382,0.2394,0.2364,0.2415,0.2443,0.243,0.2471,0.2653,0.2776,0.3005,0.3116,0.3244,0.3337,0.3233,0.3034,0.3139,0.2889,0.2817,0.3199,0.3153,0.3097,0.3097,0.3097,0.3097,0.3097,0.3097,0.2338,0.2327,0.2331,0.226,0.225,0.2194,0.2183,0.2193,0.2286,0.2416,0.2557,0.2735,0.3024,0.3216,0.3181,0.3089,0.282,0.27,0.2659,0.2952,0.2968,0.2983,0.2931,0.2829,0.2828,0.2152,0.2147,0.2144]},{"header":{"parameterUnit":"m.s-1","parameterCategory":2,"la1":30.2991,"la2":30.254,"lo1":-89.0895,"lo2":-89.0444,"dy":0.0017,"dx":0.0017,"nx":28,"ny":28,"refTime":"2024-08-30T03:00:00:Z","depth":"0","parameterNumber":3,"parameterNumberName":"V-component_of_CURRENTS"},"data":[0,0,0,0,0,0,0,0,0,0,0,0,0,0,0,0,0,0,0,0,0,0,0,0,0,0,0,0,0,0,0,0,0,0,0,0,0,0,0,0,0,0,0,0,0,0,0,0,0,0,0,0,0,0,0,0,0,0,0.0012,0.0011,0,-0.0052,-0.0053,-0.0054,-0.0103,-0.0103,-0.0104,-0.0104,-0.0217,-0.022,-0.0222,0,0,0,0,0,0,0,0,0,0,0,0,0,0.0052,0.0052,0.0012,0.0011,0.001,-0.0052,-0.0053,-0.0054,-0.0103,-0.0103,-0.0104,-0.0104,-0.0216,-0.0219,-0.0223,0,0,0,0,0,0,0,0,0,0,0,0,0,0.0015,0.0052,0.0012,-0.0021,-0.0024,-0.0052,-0.0053,-0.0054,-0.0103,-0.0103,-0.0104,-0.0104,-0.0215,-0.0219,-0.0223,-0.0238,0,0,-0.0235,-0.0237,0,0,0,0,0,0,0,0,0.0017,0.0014,-0.0015,-0.0018,-0.0022,-0.0069,-0.008,-0.0118,-0.0103,-0.0074,-0.0104,-0.0105,-0.0171,-0.0179,-0.0191,-0.0243,-0.0248,-0.0236,-0.0238,-0.024,-0.0241,0,0,0,0,0,0,0,0.002,0.0016,-0.0015,-0.0016,-0.002,-0.0045,-0.0051,-0.0087,-0.0121,-0.0077,-0.008,-0.0085,-0.0174,-0.0187,-0.0194,-0.0249,-0.0236,-0.0239,-0.0242,-0.0243,-0.0324,-0.0324,0,0,0,0,0,0,0.0033,0.0019,-0.0013,-0.0017,-0.0002,-0.0045,-0.0052,-0.0055,-0.012,-0.0129,-0.0085,-0.0087,-0.0179,-0.0189,-0.0198,-0.022,-0.024,-0.0244,-0.0246,-0.0324,-0.0324,-0.0323,0,0,0,0,0,0,0.0034,0.0031,-0.001,0.0,-0.0006,-0.0045,-0.0048,-0.0055,-0.0068,-0.0125,-0.0136,-0.0089,-0.018,-0.0192,-0.0226,-0.0225,-0.0246,-0.0249,-0.0324,-0.0324,-0.0324,-0.0263,0,0,0,0,0,0,0.0036,0.0032,0.0036,0.0001,-0.0007,-0.0018,-0.0048,-0.0056,-0.0069,-0.0073,-0.0132,-0.0143,-0.0182,-0.0219,-0.023,-0.023,-0.0252,-0.0325,-0.0324,-0.0324,-0.0265,-0.026,-0.0256,0,0,0,0,0,0.0038,0.0051,0.0037,0.0033,-0.0,-0.0018,-0.0024,-0.0055,-0.0069,-0.0069,-0.0109,-0.0141,-0.0224,-0.0222,-0.0235,-0.0236,-0.0325,-0.0324,-0.0324,-0.0267,-0.0261,-0.0256,0,0,0,0,0,0,0.0075,0.0046,0.003,0.0034,0.0012,-0.0025,-0.0025,-0.0048,-0.0079,-0.0083,-0.0139,-0.0152,-0.0182,-0.0215,-0.0212,-0.0257,-0.0279,-0.0281,-0.0232,-0.0227,-0.0223,-0.019,-0.0256,0,0,0,0,0,0.0084,0.0084,0.0052,0.0056,0.0048,0.0012,0.0002,-0.0019,-0.005,-0.0064,-0.0106,-0.015,-0.0189,-0.0211,-0.0248,-0.0273,-0.0291,-0.0281,-0.0277,-0.0273,-0.0254,-0.0288,-0.0284,-0.0321,-0.0321,-0.0321,0,0,0.01,0.0085,0.0085,0.0064,0.0045,0.0043,0.0005,-0.0003,-0.0008,-0.0072,-0.009,-0.0135,-0.0191,-0.0219,-0.0235,-0.0247,-0.027,-0.0272,-0.0268,-0.0251,-0.0287,-0.0283,-0.028,-0.0321,-0.0321,-0.0321,0,0,0.0137,0.012,0.0132,0.0118,0.0096,0.0072,0.0073,0.0038,0.002,-0.0003,-0.0052,-0.0089,-0.0148,-0.0186,-0.0214,-0.0205,-0.0245,-0.0224,-0.0178,-0.0211,-0.0208,-0.0205,-0.0214,-0.0213,-0.0223,-0.0223,-0.0223,0,0.0159,0.0167,0.0134,0.0142,0.0139,0.0091,0.0105,0.0079,0.0037,0.0028,0.0002,-0.0075,-0.0129,-0.0161,-0.0164,-0.0195,-0.0212,-0.0195,-0.0204,-0.0202,-0.0201,-0.021,-0.021,-0.022,-0.022,-0.022,-0.0221,0,0.0201,0.0207,0.0216,0.0208,0.02,0.0205,0.0168,0.0156,0.0127,0.0097,0.0063,-0.0007,-0.0049,-0.0082,-0.0124,-0.0143,-0.0156,-0.0193,-0.0214,-0.0193,-0.0205,-0.0205,-0.0215,-0.0217,-0.0217,-0.0218,0,0,0.025,0.0247,0.025,0.0261,0.0236,0.0238,0.0233,0.0217,0.0226,0.0168,0.0175,0.0087,0.0051,0.0018,-0.0045,-0.0082,-0.0096,-0.0128,-0.0131,-0.0128,-0.0149,-0.0159,-0.0161,-0.0139,-0.0139,-0.0139,-0.0157,0,0.0293,0.0328,0.0311,0.0344,0.0359,0.0322,0.033,0.0308,0.0277,0.0271,0.0193,0.0168,0.0087,0.0068,0.0019,-0.0063,-0.0095,-0.0086,-0.0176,-0.0178,-0.0184,-0.0161,-0.0139,-0.0154,-0.0158,-0.0158,-0.0158,0,0.0339,0.0357,0.0401,0.042,0.0426,0.0438,0.0448,0.0442,0.0412,0.0391,0.0347,0.0291,0.0231,0.0158,0.0041,0.0051,-0.0036,-0.0105,-0.0109,-0.0136,-0.0189,-0.0179,-0.0156,-0.0331,-0.0159,-0.0159,-0.0159,0,0.0394,0.042,0.0461,0.0466,0.048,0.0499,0.0499,0.0483,0.0504,0.0464,0.049,0.0391,0.0371,0.0241,0.0098,0.0069,-0.002,-0.0082,-0.0169,-0.017,-0.0176,-0.0177,-0.0324,-0.0158,-0.0158,-0.0158,-0.0158,0,0.0446,0.048,0.0494,0.0519,0.058,0.0559,0.0618,0.06,0.0613,0.0669,0.0558,0.0595,0.039,0.0315,0.0154,0.0009,0.0021,-0.0142,-0.0174,-0.0153,-0.0153,-0.0327,-0.0428,-0.0159,-0.0159,-0.0159,-0.0159,0,0.0502,0.0509,0.0561,0.0592,0.061,0.0649,0.0705,0.0748,0.0744,0.0819,0.0819,0.0757,0.0657,0.046,0.0266,0.0107,-0.0147,-0.0112,-0.006,-0.0087,-0.0345,-0.0442,-0.0601,-0.0674,-0.0208,-0.0208,-0.0209,0,0.0533,0.0569,0.0623,0.0665,0.0685,0.0743,0.0795,0.0806,0.0864,0.0938,0.0992,0.093,0.0921,0.0636,0.0322,0.0052,-0.0132,-0.0115,-0.0181,-0.0341,-0.0474,-0.0548,-0.0604,-0.016,-0.016,-0.016,-0.016,0,0.0602,0.0621,0.0668,0.0756,0.0818,0.0893,0.0968,0.1047,0.1092,0.1179,0.1285,0.1293,0.103,0.0758,0.0366,0.017,-0.0234,-0.0122,-0.0309,-0.0458,-0.0526,-0.0616,-0.0155,-0.0159,-0.0159,-0.0159,-0.0159,-0.0159,0.066,0.0709,0.0778,0.0862,0.0936,0.1047,0.1138,0.124,0.1379,0.1533,0.1513,0.1558,0.1147,0.0618,0.032,-0.022,-0.0238,-0.039,-0.0493,-0.0552,-0.0634,-0.0156,-0.0191,-0.0191,-0.0192,-0.0192,-0.0192,0,0.0744,0.0802,0.0882,0.099,0.1085,0.1106,0.1264,0.1371,0.1567,0.169,0.1786,0.1612,0.1114,0.0592,-0.0142,-0.0526,-0.0666,-0.0736,-0.0849,-0.0889,-0.0478,-0.0488,-0.0562,-0.0562,-0.0562,-0.0562,-0.0562,-0.0561,0.08,0.0899,0.0939,0.1109,0.1184,0.1334,0.1438,0.16,0.1721,0.1884,0.191,0.1895,0.15,0.0191,-0.0705,-0.0909,-0.1167,-0.1227,-0.1372,-0.1114,-0.109,-0.1067,-0.1103,-0.1304,-0.1305,-0.1723,-0.1728,-0.1731]}],[{"header":{"parameterUnit":"m.s-1","parameterCategory":2,"la1":30.2991,"la2":30.254,"lo1":-89.0895,"lo2":-89.0444,"dy":0.0017,"dx":0.0017,"nx":28,"ny":28,"refTime":"2024-08-30T03:00:00:Z","depth":"2","parameterNumber":2,"parameterNumberName":"U-component_of_CURRENTS"},"data":[0,0,0,0,0,0,0,0,0,0,0,0,0,0,0,0,0,0,0,0,0,0,0,0,0,0,0,0,0,0,0,0,0,0,0,0,0,0,0,0,0,0,0,0,0,0,0,0,0,0,0,0,0,0,0,0,0,0,0.248,0.248,0,0.251,0.251,0.251,0.2535,0.2535,0.2536,0.2536,0.2546,0.2546,0.2546,0,0,0,0,0,0,0,0,0,0,0,0,0,0.2431,0.2432,0.248,0.248,0.2481,0.251,0.251,0.251,0.2535,0.2535,0.2536,0.2536,0.2546,0.2546,0.2546,0,0,0,0,0,0,0,0,0,0,0,0,0,0.2455,0.2432,0.248,0.2497,0.2499,0.2509,0.251,0.251,0.2535,0.2535,0.2536,0.2536,0.2546,0.2546,0.2546,0.2535,0,0,0.2546,0.2546,0,0,0,0,0,0,0,0,0.2453,0.2456,0.2494,0.2496,0.2498,0.252,0.2496,0.2518,0.2535,0.252,0.2536,0.2537,0.2536,0.2537,0.254,0.2536,0.2536,0.2546,0.2546,0.2546,0.2546,0,0,0,0,0,0,0,0.2452,0.2455,0.2491,0.2495,0.2497,0.2499,0.2503,0.2501,0.2524,0.2522,0.2524,0.2528,0.2537,0.254,0.254,0.2536,0.2546,0.2546,0.2546,0.2546,0.2614,0.2616,0,0,0,0,0,0,0.245,0.2454,0.249,0.2492,0.2478,0.2499,0.2504,0.2512,0.2524,0.2527,0.2528,0.2529,0.254,0.254,0.2541,0.2611,0.2546,0.2546,0.2546,0.2613,0.2615,0.2617,0,0,0,0,0,0,0.2449,0.2453,0.2489,0.2474,0.2479,0.25,0.2508,0.2512,0.2529,0.2529,0.2532,0.2543,0.254,0.2541,0.257,0.2608,0.2546,0.2546,0.261,0.2613,0.2616,0.2698,0,0,0,0,0,0,0.2447,0.2453,0.2462,0.2474,0.2479,0.2515,0.2508,0.2512,0.253,0.2533,0.2542,0.2543,0.2541,0.2571,0.257,0.2607,0.2546,0.2608,0.2612,0.2615,0.2693,0.2704,0.2713,0,0,0,0,0,0.2446,0.2453,0.2462,0.2467,0.2491,0.2516,0.2519,0.2535,0.2531,0.2549,0.2562,0.2544,0.2593,0.2572,0.2571,0.2609,0.2606,0.2611,0.2615,0.2689,0.2702,0.2712,0,0,0,0,0,0,0.2427,0.2457,0.2467,0.2482,0.2508,0.2521,0.2535,0.254,0.2563,0.2571,0.2562,0.2565,0.2604,0.2594,0.2571,0.264,0.2598,0.2602,0.2655,0.2667,0.2676,0.266,0.2545,0,0,0,0,0,0.243,0.2452,0.2476,0.2491,0.2504,0.2521,0.2532,0.255,0.2568,0.2578,0.2585,0.2599,0.2618,0.2633,0.2642,0.2675,0.2665,0.2701,0.2711,0.2719,0.2707,0.2737,0.2748,0.2631,0.2631,0.263,0,0,0.2427,0.2445,0.2458,0.249,0.2508,0.2535,0.253,0.2562,0.2605,0.2574,0.2629,0.2627,0.2632,0.2678,0.2695,0.2678,0.2753,0.2725,0.2732,0.2714,0.2742,0.2753,0.2763,0.2633,0.2633,0.2632,0,0,0.243,0.2451,0.2473,0.2499,0.2539,0.2554,0.2566,0.2597,0.2639,0.2678,0.268,0.2697,0.272,0.2741,0.275,0.2813,0.2797,0.2828,0.287,0.2901,0.291,0.2918,0.294,0.2949,0.284,0.284,0.284,0,0.2426,0.2454,0.2483,0.2511,0.2535,0.2563,0.2594,0.2642,0.2684,0.2709,0.2708,0.2739,0.2747,0.2798,0.2832,0.2834,0.2848,0.2827,0.2913,0.292,0.2927,0.2947,0.2956,0.2845,0.2844,0.2844,0.2843,0,0.2448,0.2475,0.2489,0.2538,0.2572,0.2603,0.2669,0.2708,0.2739,0.2768,0.2824,0.284,0.285,0.2872,0.2873,0.2937,0.2931,0.2916,0.2881,0.2944,0.2961,0.2969,0.2851,0.2849,0.2848,0.2847,0,0,0.2423,0.2491,0.2498,0.2526,0.2592,0.262,0.2695,0.2756,0.2795,0.2845,0.2885,0.2934,0.2929,0.2939,0.2956,0.2989,0.3063,0.2985,0.2985,0.3002,0.3138,0.3119,0.3125,0.3075,0.3077,0.3078,0.3138,0,0.243,0.2486,0.252,0.2575,0.261,0.2657,0.2722,0.2788,0.2839,0.289,0.2929,0.2971,0.2971,0.2983,0.3022,0.3048,0.3086,0.3048,0.3077,0.3077,0.3049,0.3134,0.2905,0.2937,0.3145,0.3146,0.3147,0,0.2433,0.2479,0.253,0.2604,0.2623,0.2655,0.2737,0.2807,0.2888,0.2926,0.2963,0.2993,0.3059,0.3044,0.3123,0.3107,0.3128,0.3142,0.3145,0.3096,0.3073,0.2904,0.2943,0.316,0.3159,0.3158,0.3157,0,0.2406,0.2479,0.252,0.2546,0.2633,0.2661,0.2714,0.2801,0.2867,0.295,0.2983,0.3047,0.3098,0.3131,0.3184,0.3162,0.3262,0.3227,0.3225,0.3223,0.3013,0.299,0.3272,0.3272,0.3272,0.3272,0.3271,0,0.2393,0.2425,0.2507,0.2529,0.258,0.2657,0.2715,0.2773,0.2863,0.2918,0.3006,0.306,0.3128,0.3197,0.321,0.326,0.3288,0.3242,0.3244,0.3039,0.3019,0.3188,0.3177,0.3274,0.3273,0.3273,0.3273,0,0.2345,0.2397,0.2441,0.2531,0.2561,0.26,0.2704,0.2741,0.2853,0.2924,0.2956,0.3093,0.3188,0.3254,0.3319,0.3307,0.3336,0.3342,0.3101,0.3074,0.3263,0.3256,0.3329,0.3329,0.3329,0.3329,0.3329,0,0.2324,0.234,0.2425,0.2446,0.2478,0.2551,0.259,0.2708,0.2751,0.2931,0.2952,0.3103,0.3169,0.3295,0.3308,0.334,0.3372,0.3133,0.3039,0.3278,0.3273,0.3266,0.3259,0.2794,0.279,0.2786,0.2783,0,0.2278,0.2297,0.2333,0.2386,0.2418,0.246,0.2533,0.2566,0.2698,0.2788,0.2905,0.2985,0.3138,0.3091,0.3173,0.3147,0.3106,0.3063,0.3377,0.2829,0.2782,0.2775,0.2784,0.2751,0.2754,0.2757,0.2759,0.276,0.223,0.2236,0.2281,0.2311,0.2346,0.236,0.2367,0.2446,0.2517,0.2608,0.2746,0.2801,0.2877,0.2895,0.2835,0.2806,0.3005,0.2856,0.2862,0.2874,0.2815,0.2772,0.2728,0.2731,0.2733,0.2736,0.2738,0,0.2183,0.2194,0.2213,0.2236,0.2222,0.2281,0.2314,0.2298,0.2339,0.244,0.252,0.2377,0.2394,0.2466,0.2395,0.2425,0.235,0.2308,0.2181,0.2219,0.2251,0.2154,0.1894,0.1891,0.1888,0.1885,0,0,0.2162,0.2153,0.2154,0.2105,0.212,0.2091,0.2089,0.2075,0.2126,0.2104,0.2116,0.2289,0.2422,0.212,0.211,0.1989,0.2071,0.1912,0.2603,0.2493,0.252,0.2601,0.2501,0,0,0,0,0]},{"header":{"parameterUnit":"m.s-1","parameterCategory":2,"la1":30.2991,"la2":30.254,"lo1":-89.0895,"lo2":-89.0444,"dy":0.0017,"dx":0.0017,"nx":28,"ny":28,"refTime":"2024-08-30T03:00:00:Z","depth":"2","parameterNumber":3,"parameterNumberName":"V-component_of_CURRENTS"},"data":[0,0,0,0,0,0,0,0,0,0,0,0,0,0,0,0,0,0,0,0,0,0,0,0,0,0,0,0,0,0,0,0,0,0,0,0,0,0,0,0,0,0,0,0,0,0,0,0,0,0,0,0,0,0,0,0,0,0,-0.0029,-0.003,0,-0.0087,-0.0087,-0.0088,-0.0133,-0.0134,-0.0134,-0.0134,-0.0223,-0.0225,-0.0227,0,0,0,0,0,0,0,0,0,0,0,0,0,0.0006,0.0006,-0.0029,-0.003,-0.003,-0.0086,-0.0087,-0.0088,-0.0133,-0.0134,-0.0134,-0.0134,-0.0223,-0.0225,-0.0227,0,0,0,0,0,0,0,0,0,0,0,0,0,-0.0027,0.0006,-0.0029,-0.0059,-0.0062,-0.0086,-0.0087,-0.0088,-0.0133,-0.0134,-0.0134,-0.0135,-0.0222,-0.0225,-0.0228,-0.0236,0,0,-0.0237,-0.0238,0,0,0,0,0,0,0,0,-0.0025,-0.0028,-0.0054,-0.0057,-0.0061,-0.0102,-0.0107,-0.0139,-0.0133,-0.0107,-0.0134,-0.0135,-0.0185,-0.0191,-0.0201,-0.024,-0.0244,-0.0237,-0.0239,-0.024,-0.0241,0,0,0,0,0,0,0,-0.0022,-0.0026,-0.0053,-0.0055,-0.0059,-0.0081,-0.0086,-0.0114,-0.0144,-0.0109,-0.0113,-0.0117,-0.0187,-0.0198,-0.0204,-0.0245,-0.0237,-0.024,-0.0242,-0.0243,-0.0306,-0.0306,0,0,0,0,0,0,-0.0011,-0.0023,-0.0051,-0.0055,-0.0042,-0.0081,-0.0087,-0.0089,-0.0143,-0.0151,-0.0117,-0.0119,-0.0193,-0.02,-0.0207,-0.0221,-0.024,-0.0243,-0.0245,-0.0306,-0.0306,-0.0306,0,0,0,0,0,0,-0.001,-0.0013,-0.0049,-0.004,-0.0046,-0.0081,-0.0083,-0.009,-0.0101,-0.0148,-0.0157,-0.0121,-0.0194,-0.0203,-0.023,-0.0224,-0.0245,-0.0247,-0.0306,-0.0306,-0.0306,-0.0247,0,0,0,0,0,0,-0.0008,-0.0012,-0.0009,-0.0039,-0.0046,-0.0057,-0.0083,-0.0091,-0.0103,-0.0107,-0.0154,-0.0163,-0.0195,-0.0225,-0.0233,-0.0229,-0.025,-0.0306,-0.0306,-0.0306,-0.0249,-0.0245,-0.0241,0,0,0,0,0,-0.0007,0.0003,-0.0009,-0.0012,-0.0041,-0.0057,-0.0062,-0.009,-0.0102,-0.0103,-0.0137,-0.0162,-0.0229,-0.0228,-0.0237,-0.0233,-0.0307,-0.0306,-0.0306,-0.0251,-0.0246,-0.0241,0,0,0,0,0,0,0.002,-0.0002,-0.0015,-0.0013,-0.0031,-0.0064,-0.0065,-0.0084,-0.0111,-0.0114,-0.016,-0.0171,-0.0193,-0.0221,-0.0218,-0.0251,-0.0272,-0.0273,-0.0227,-0.0222,-0.0218,-0.019,-0.0252,0,0,0,0,0,0.0028,0.003,0.0003,0.0005,-0.0001,-0.0032,-0.0042,-0.0059,-0.0086,-0.0098,-0.0132,-0.0168,-0.0198,-0.0215,-0.0245,-0.0263,-0.0285,-0.0267,-0.0263,-0.0259,-0.0243,-0.028,-0.0277,-0.0305,-0.0305,-0.0305,0,0,0.004,0.0028,0.0029,0.0011,-0.0005,-0.0003,-0.0039,-0.0046,-0.0049,-0.0104,-0.0117,-0.0154,-0.0199,-0.022,-0.0232,-0.0243,-0.0263,-0.0259,-0.0255,-0.024,-0.0279,-0.0276,-0.0274,-0.0304,-0.0304,-0.0304,0,0,0.0071,0.0055,0.0068,0.0057,0.0039,0.002,0.0022,-0.0008,-0.0026,-0.0043,-0.0084,-0.0113,-0.0159,-0.0189,-0.0211,-0.0202,-0.0239,-0.0216,-0.0174,-0.021,-0.0208,-0.0206,-0.0226,-0.0227,-0.0215,-0.0215,-0.0215,0,0.0087,0.0098,0.0069,0.008,0.0079,0.0037,0.0053,0.0029,-0.0006,-0.0013,-0.0038,-0.0098,-0.0141,-0.0164,-0.0165,-0.0191,-0.0214,-0.0188,-0.0204,-0.0203,-0.0202,-0.0223,-0.0225,-0.0212,-0.0212,-0.0213,-0.0213,0,0.0126,0.0135,0.0143,0.0143,0.0137,0.0144,0.0112,0.0103,0.0077,0.0052,0.0025,-0.0036,-0.0068,-0.0094,-0.0128,-0.0144,-0.0161,-0.0193,-0.0212,-0.0195,-0.0219,-0.0222,-0.0208,-0.0209,-0.021,-0.0211,0,0,0.0163,0.0171,0.0174,0.019,0.0173,0.0176,0.0174,0.0163,0.0171,0.0121,0.0125,0.0058,0.0026,-0.0001,-0.0054,-0.009,-0.0113,-0.0134,-0.0138,-0.0146,-0.0182,-0.0198,-0.0203,-0.0151,-0.0152,-0.0152,-0.0198,0,0.0204,0.0244,0.0233,0.0271,0.029,0.026,0.0267,0.025,0.0222,0.0212,0.0145,0.0124,0.0058,0.0044,-0.0003,-0.0084,-0.0117,-0.0096,-0.0203,-0.0205,-0.0216,-0.0205,-0.0174,-0.0214,-0.0201,-0.0201,-0.0202,0,0.0248,0.027,0.0317,0.0344,0.0351,0.0365,0.0376,0.0374,0.0343,0.0321,0.0284,0.0233,0.0177,0.0115,-0.0003,0.0012,-0.0071,-0.0139,-0.0143,-0.0177,-0.0226,-0.0231,-0.0219,-0.0206,-0.0206,-0.0206,-0.0205,0,0.0295,0.033,0.0373,0.0381,0.0402,0.042,0.0424,0.041,0.0427,0.0388,0.0404,0.0316,0.0287,0.0169,0.003,0.0012,-0.0099,-0.0145,-0.0235,-0.0237,-0.0238,-0.024,-0.0222,-0.0222,-0.0222,-0.0221,-0.0221,0,0.0344,0.038,0.0401,0.0427,0.0486,0.0473,0.0526,0.0513,0.0518,0.0557,0.0465,0.0478,0.0298,0.0214,0.0069,-0.008,-0.0071,-0.0215,-0.0249,-0.0217,-0.0217,-0.0235,-0.0236,-0.0223,-0.0223,-0.0222,-0.0222,0,0.0391,0.0404,0.0459,0.0494,0.0513,0.0549,0.0602,0.0637,0.063,0.0678,0.0677,0.0602,0.0486,0.0311,0.0121,-0.0014,-0.0168,-0.0225,-0.0167,-0.0194,-0.0291,-0.0288,-0.0327,-0.0328,-0.0329,-0.033,-0.033,0,0.0419,0.0453,0.0513,0.0553,0.0573,0.0629,0.0675,0.0688,0.0733,0.0763,0.0796,0.0711,0.0659,0.0381,0.0123,-0.012,-0.016,-0.025,-0.0286,-0.0272,-0.0301,-0.0298,-0.0294,-0.0264,-0.0264,-0.0264,-0.0264,0,0.0471,0.0491,0.0536,0.062,0.0677,0.0749,0.0813,0.0874,0.0903,0.0952,0.0992,0.0956,0.07,0.0449,0.0111,-0.005,-0.0213,-0.0258,-0.0257,-0.0243,-0.0217,-0.0245,-0.0242,-0.0264,-0.0264,-0.0264,-0.0264,-0.0264,0.0506,0.0546,0.0608,0.0686,0.0764,0.0858,0.0921,0.1,0.1093,0.1158,0.1125,0.1084,0.0799,0.0372,0.0077,-0.0217,-0.021,-0.0315,-0.0314,-0.0312,-0.0297,-0.0274,-0.0328,-0.0329,-0.0329,-0.0329,-0.0329,0,0.0537,0.0589,0.0669,0.0762,0.085,0.0887,0.1011,0.1065,0.1182,0.1249,0.1269,0.1013,0.0741,0.0428,-0.0012,-0.0288,-0.0305,-0.0364,-0.0329,-0.0327,-0.0325,-0.031,-0.0346,-0.0347,-0.0347,-0.0348,0,0,0.0555,0.0626,0.0666,0.0808,0.089,0.1005,0.108,0.1156,0.1231,0.1277,0.1278,0.1224,0.0856,0.0532,0.0156,-0.0095,-0.0145,-0.0138,-0.0093,-0.0005,0.0,-0.0263,-0.0233,0,0,0,0,0]}],[{"header":{"parameterUnit":"m.s-1","parameterCategory":2,"la1":30.2991,"la2":30.254,"lo1":-89.0895,"lo2":-89.0444,"dy":0.0017,"dx":0.0017,"nx":28,"ny":28,"refTime":"2024-08-30T03:00:00:Z","depth":"4","parameterNumber":2,"parameterNumberName":"U-component_of_CURRENTS"},"data":[0,0,0,0,0,0,0,0,0,0,0,0,0,0,0,0,0,0,0,0,0,0,0,0,0,0,0,0,0,0,0,0,0,0,0,0,0,0,0,0,0,0,0,0,0,0,0,0,0,0,0,0,0,0,0,0,0,0,0.15,0.1501,0,0.1569,0.157,0.1571,0.1627,0.1627,0.1628,0.1628,0.17,0.1701,0.1703,0,0,0,0,0,0,0,0,0,0,0,0,0,0.1427,0.1428,0.15,0.1501,0.1501,0.1569,0.157,0.1571,0.1627,0.1627,0.1628,0.1628,0.1699,0.1701,0.1703,0,0,0,0,0,0,0,0,0,0,0,0,0,0.1474,0.1428,0.15,0.1537,0.1541,0.1568,0.157,0.1571,0.1627,0.1627,0.1628,0.1629,0.1699,0.1701,0.1703,0.1701,0,0,0.1709,0.171,0,0,0,0,0,0,0,0,0.1472,0.1477,0.1531,0.1534,0.1539,0.1589,0.157,0.1614,0.1626,0.1595,0.1628,0.1629,0.1662,0.1667,0.168,0.1704,0.1707,0.171,0.1711,0.1712,0.1712,0,0,0,0,0,0,0,0.1468,0.1474,0.1528,0.1531,0.1536,0.1554,0.1561,0.1579,0.1624,0.1598,0.1602,0.1608,0.1664,0.1677,0.1682,0.1708,0.171,0.1712,0.1713,0.1714,0.1824,0.1825,0,0,0,0,0,0,0.1457,0.1471,0.1526,0.153,0.1505,0.1554,0.1563,0.1573,0.1624,0.1632,0.1607,0.161,0.1673,0.1679,0.1684,0.1763,0.1712,0.1714,0.1715,0.1822,0.1824,0.1826,0,0,0,0,0,0,0.1455,0.1461,0.1523,0.1501,0.151,0.1554,0.1566,0.1574,0.1619,0.1631,0.1639,0.1647,0.1674,0.1681,0.1732,0.1764,0.1715,0.1717,0.182,0.1823,0.1825,0.1871,0,0,0,0,0,0,0.1453,0.146,0.1482,0.1501,0.1511,0.1559,0.1565,0.1575,0.1619,0.1625,0.1667,0.1673,0.1675,0.1729,0.1734,0.1766,0.1718,0.1818,0.1821,0.1824,0.1867,0.1875,0.1881,0,0,0,0,0,0.145,0.1465,0.1483,0.1491,0.1534,0.1559,0.1567,0.1601,0.1621,0.1644,0.1678,0.1673,0.1752,0.1732,0.1738,0.1771,0.1817,0.1821,0.1824,0.1864,0.1873,0.1881,0,0,0,0,0,0,0.1445,0.1473,0.1493,0.1518,0.1548,0.1569,0.1599,0.1619,0.1665,0.1683,0.1694,0.1702,0.1757,0.176,0.1737,0.1812,0.1784,0.1789,0.1812,0.1821,0.1828,0.1826,0.172,0,0,0,0,0,0.1454,0.1477,0.1503,0.1529,0.1547,0.1581,0.1604,0.1627,0.1659,0.1683,0.171,0.1742,0.1771,0.1794,0.1817,0.1858,0.1869,0.1884,0.1891,0.1896,0.19,0.1946,0.1958,0.1838,0.1838,0.1838,0,0,0.1459,0.1478,0.1493,0.1531,0.1561,0.1588,0.1599,0.1642,0.167,0.1681,0.1742,0.1769,0.1788,0.1836,0.186,0.1846,0.1939,0.1901,0.1906,0.1906,0.1951,0.1963,0.1973,0.1841,0.184,0.184,0,0,0.1467,0.1503,0.1523,0.155,0.1597,0.1616,0.1635,0.1678,0.171,0.1761,0.178,0.1828,0.1872,0.1893,0.1907,0.1966,0.1972,0.1981,0.2016,0.2061,0.2071,0.208,0.2117,0.2129,0.1985,0.1985,0.1985,0,0.1477,0.1502,0.1534,0.156,0.1587,0.1631,0.166,0.1693,0.1748,0.1779,0.1789,0.1879,0.1895,0.1952,0.1975,0.198,0.2009,0.1981,0.2069,0.2078,0.2087,0.2122,0.2135,0.1988,0.1987,0.1987,0.1987,0,0.149,0.1524,0.1541,0.1587,0.1622,0.1656,0.17,0.1749,0.1793,0.1823,0.1903,0.1937,0.1992,0.2006,0.2009,0.2082,0.2084,0.2071,0.2045,0.2101,0.2135,0.2148,0.1991,0.199,0.199,0.1989,0,0,0.147,0.1537,0.1546,0.1577,0.1642,0.1668,0.1728,0.1787,0.1839,0.1897,0.1965,0.2018,0.2055,0.2074,0.2096,0.2134,0.2216,0.2135,0.2137,0.2167,0.2326,0.2186,0.2185,0.2227,0.2229,0.2231,0.2329,0,0.1475,0.152,0.1555,0.1611,0.1641,0.1704,0.1752,0.1817,0.188,0.1957,0.201,0.2082,0.2076,0.2126,0.2163,0.2209,0.225,0.2191,0.2272,0.2274,0.2138,0.2194,0.2238,0.2337,0.234,0.2342,0.2344,0,0.1467,0.1503,0.1553,0.163,0.1652,0.1696,0.1798,0.1849,0.1955,0.2013,0.2097,0.2145,0.223,0.2212,0.2315,0.2286,0.2313,0.2333,0.2337,0.2196,0.2155,0.2269,0.2365,0.2364,0.2362,0.236,0.2359,0,0.1423,0.1498,0.154,0.1567,0.1659,0.1709,0.1769,0.1872,0.1937,0.2065,0.2137,0.2228,0.2305,0.2351,0.2403,0.2377,0.2504,0.2468,0.2364,0.2356,0.2432,0.2421,0.2533,0.2533,0.2533,0.2533,0.2532,0,0.1393,0.1432,0.1532,0.1554,0.1622,0.1698,0.1789,0.1864,0.1992,0.2066,0.2172,0.2243,0.2349,0.2429,0.2445,0.2447,0.2544,0.2379,0.2372,0.245,0.244,0.2441,0.2428,0.2536,0.2535,0.2535,0.2534,0,0.133,0.1394,0.1449,0.1559,0.1601,0.1652,0.1798,0.1859,0.1994,0.2102,0.2152,0.2299,0.2387,0.2472,0.256,0.2495,0.251,0.2486,0.2584,0.258,0.2319,0.2309,0.2366,0.2362,0.2358,0.2355,0.2353,0,0.1297,0.132,0.1441,0.1481,0.1537,0.1633,0.1696,0.1844,0.191,0.2103,0.2138,0.2291,0.2364,0.2388,0.2471,0.2505,0.2474,0.2468,0.2362,0.2315,0.2304,0.2298,0.2293,0.2347,0.2347,0.2346,0.2345,0,0.1231,0.1287,0.1334,0.1419,0.1493,0.1569,0.1673,0.1714,0.1872,0.2015,0.2082,0.2136,0.2237,0.2292,0.2355,0.2362,0.2458,0.243,0.2436,0.2336,0.2293,0.2284,0.2283,0.2333,0.2334,0.2335,0.2336,0,0.1184,0.1201,0.1274,0.1337,0.1427,0.1475,0.1543,0.1622,0.1709,0.191,0.1921,0.2073,0.2206,0.222,0.2265,0.2279,0.2228,0.2143,0.2162,0.2177,0.2068,0.1982,0.1928,0,0,0,0,0,0.1127,0.1136,0.1188,0.1251,0.1337,0.1397,0.1513,0.1584,0.1732,0.1733,0.1827,0.1901,0.1971,0.2048,0.2024,0.2179,0.224,0.2141,0.2151,0.2265,0.2279,0.2167,0,0,0,0,0,0,0.1087,0.113,0.1149,0.1168,0.1202,0.1289,0.1359,0.1459,0.1469,0.1622,0.1673,0.179,0.189,0.1973,0.199,0.2015,0.1982,0.2238,0.2233,0.2258,0.227,0.2281,0.2171,0,0,0,0,0]},{"header":{"parameterUnit":"m.s-1","parameterCategory":2,"la1":30.2991,"la2":30.254,"lo1":-89.0895,"lo2":-89.0444,"dy":0.0017,"dx":0.0017,"nx":28,"ny":28,"refTime":"2024-08-30T03:00:00:Z","depth":"4","parameterNumber":3,"parameterNumberName":"V-component_of_CURRENTS"},"data":[0,0,0,0,0,0,0,0,0,0,0,0,0,0,0,0,0,0,0,0,0,0,0,0,0,0,0,0,0,0,0,0,0,0,0,0,0,0,0,0,0,0,0,0,0,0,0,0,0,0,0,0,0,0,0,0,0,0,0.0038,0.0038,0,-0.0002,-0.0002,-0.0003,-0.0031,-0.0031,-0.0031,-0.0031,-0.0086,-0.0087,-0.0089,0,0,0,0,0,0,0,0,0,0,0,0,0,0.0058,0.0058,0.0038,0.0038,0.0037,-0.0001,-0.0002,-0.0003,-0.0031,-0.0031,-0.0031,-0.0031,-0.0086,-0.0087,-0.0089,0,0,0,0,0,0,0,0,0,0,0,0,0,0.0036,0.0058,0.0038,0.0019,0.0017,-0.0001,-0.0002,-0.0003,-0.0031,-0.0031,-0.0031,-0.0032,-0.0085,-0.0087,-0.0089,-0.0097,0,0,-0.0095,-0.0096,0,0,0,0,0,0,0,0,0.0038,0.0035,0.0023,0.0021,0.0018,-0.0011,-0.0015,-0.0035,-0.0031,-0.0014,-0.0031,-0.0032,-0.0061,-0.0065,-0.0074,-0.01,-0.0102,-0.0095,-0.0097,-0.0097,-0.0098,0,0,0,0,0,0,0,0.0039,0.0037,0.0021,0.0022,0.002,0.0002,-0.0001,-0.0019,-0.0037,-0.0015,-0.0017,-0.002,-0.0063,-0.0072,-0.0075,-0.0103,-0.0095,-0.0097,-0.0098,-0.0099,-0.0136,-0.0136,0,0,0,0,0,0,0.0048,0.0038,0.0023,0.002,0.0029,0.0002,-0.0001,-0.0002,-0.0037,-0.0042,-0.002,-0.0021,-0.0068,-0.0073,-0.0077,-0.0075,-0.0097,-0.0099,-0.01,-0.0136,-0.0136,-0.0136,0,0,0,0,0,0,0.0049,0.0047,0.0024,0.0029,0.0025,0.0002,0.0002,-0.0003,-0.0011,-0.0039,-0.0045,-0.0023,-0.0068,-0.0074,-0.0089,-0.0078,-0.01,-0.0102,-0.0136,-0.0136,-0.0136,-0.008,0,0,0,0,0,0,0.0049,0.0048,0.0049,0.003,0.0025,0.002,0.0002,-0.0003,-0.0012,-0.0014,-0.0044,-0.005,-0.0069,-0.0086,-0.0091,-0.0081,-0.0104,-0.0137,-0.0136,-0.0136,-0.0082,-0.0078,-0.0074,0,0,0,0,0,0.005,0.0056,0.0049,0.0047,0.0028,0.0021,0.0017,-0.0001,-0.0012,-0.0011,-0.0032,-0.0049,-0.0087,-0.0087,-0.0093,-0.0084,-0.0137,-0.0136,-0.0136,-0.0084,-0.0079,-0.0074,0,0,0,0,0,0,0.0064,0.0053,0.0045,0.0047,0.0037,0.0016,0.0015,0.0002,-0.0015,-0.0018,-0.0047,-0.0053,-0.0062,-0.0082,-0.0082,-0.0094,-0.0115,-0.0115,-0.0073,-0.0069,-0.0065,-0.0052,-0.0105,0,0,0,0,0,0.0069,0.0071,0.0057,0.0058,0.0055,0.0035,0.0029,0.0018,0.0002,-0.0006,-0.0027,-0.0049,-0.0065,-0.0074,-0.0093,-0.0099,-0.0129,-0.0098,-0.0094,-0.009,-0.0084,-0.0125,-0.0124,-0.0134,-0.0134,-0.0134,0,0,0.0075,0.0069,0.007,0.0062,0.0051,0.0057,0.0031,0.0026,0.0033,-0.0009,-0.001,-0.0037,-0.0065,-0.0071,-0.0076,-0.0085,-0.0103,-0.0089,-0.0086,-0.0082,-0.0124,-0.0123,-0.0122,-0.0134,-0.0134,-0.0134,0,0,0.0094,0.0083,0.0095,0.0091,0.0083,0.0072,0.0073,0.0056,0.0049,0.0043,0.0016,-0.0005,-0.0028,-0.0046,-0.0057,-0.0044,-0.0081,-0.0049,-0.0017,-0.0056,-0.0055,-0.0055,-0.0089,-0.0092,-0.0046,-0.0046,-0.0046,0,0.0101,0.0114,0.0097,0.0109,0.0112,0.0083,0.01,0.009,0.007,0.0066,0.0051,0.001,-0.0016,-0.0023,-0.0017,-0.0034,-0.0062,-0.003,-0.005,-0.0051,-0.0051,-0.0086,-0.0091,-0.0043,-0.0043,-0.0044,-0.0044,0,0.0131,0.0142,0.0149,0.0157,0.0157,0.0165,0.0154,0.0151,0.0135,0.012,0.0105,0.0066,0.0041,0.003,0.0012,-0.0001,-0.002,-0.0041,-0.006,-0.0047,-0.0085,-0.009,-0.0039,-0.004,-0.0041,-0.0042,0,0,0.0147,0.0167,0.017,0.0187,0.0185,0.0191,0.0201,0.0201,0.0206,0.0177,0.0178,0.0143,0.0112,0.0096,0.0064,0.0034,0.0003,0.0001,-0.0003,-0.0028,-0.0081,-0.0085,-0.0092,-0.0022,-0.0023,-0.0023,-0.0104,0,0.0177,0.0214,0.0215,0.0252,0.027,0.0256,0.027,0.0265,0.0248,0.0239,0.0195,0.018,0.0141,0.0129,0.0091,0.0023,-0.001,0.0027,-0.0094,-0.0097,-0.0098,-0.0097,-0.0026,-0.0108,-0.011,-0.0111,-0.0112,0,0.0207,0.023,0.0273,0.0305,0.0312,0.0328,0.0341,0.035,0.0328,0.0313,0.0282,0.0244,0.02,0.0163,0.0054,0.0078,0.0007,-0.0048,-0.0054,-0.0079,-0.0111,-0.0126,-0.0122,-0.0121,-0.0121,-0.012,-0.0119,0,0.0232,0.0272,0.031,0.032,0.0349,0.0365,0.0375,0.0368,0.0384,0.0356,0.0356,0.029,0.0258,0.0163,0.005,0.0049,-0.0075,-0.0096,-0.0166,-0.0168,-0.0165,-0.0164,-0.0173,-0.0173,-0.0173,-0.0173,-0.0173,0,0.0262,0.0294,0.0325,0.0348,0.0395,0.0398,0.0437,0.0433,0.0436,0.0454,0.0394,0.0385,0.0256,0.0173,0.0064,-0.0066,-0.007,-0.0159,-0.0189,-0.014,-0.0135,-0.0169,-0.0168,-0.0176,-0.0175,-0.0175,-0.0174,0,0.0282,0.0304,0.0352,0.0391,0.041,0.0439,0.0488,0.0509,0.0504,0.0525,0.0522,0.0451,0.0337,0.0206,0.0044,-0.0043,-0.017,-0.0216,-0.0146,-0.0171,-0.0241,-0.0236,-0.0303,-0.0303,-0.0304,-0.0305,-0.0305,0,0.0295,0.0322,0.0384,0.0415,0.0435,0.0483,0.0518,0.054,0.0565,0.0564,0.0573,0.0484,0.0417,0.0194,0.0043,-0.0163,-0.0193,-0.0258,-0.0254,-0.0232,-0.0254,-0.0248,-0.0242,-0.0306,-0.0306,-0.0306,-0.0307,0,0.0312,0.0333,0.0371,0.0437,0.0483,0.0545,0.0593,0.0621,0.0644,0.065,0.0618,0.0509,0.0379,0.0199,0.0041,-0.0109,-0.0215,-0.0265,-0.0265,-0.0262,-0.0238,-0.0257,-0.0251,-0.0309,-0.0309,-0.0308,-0.0308,0,0.0314,0.0339,0.0385,0.0444,0.0514,0.0576,0.0608,0.0638,0.0669,0.0671,0.0656,0.0523,0.0448,0.0226,0.0078,-0.0067,-0.0109,-0.0155,-0.0161,-0.0161,-0.0097,-0.0044,-0.0079,0,0,0,0,0,0.0302,0.0326,0.0386,0.0448,0.0525,0.0563,0.0644,0.0669,0.0701,0.0689,0.0678,0.0561,0.0347,0.0249,0.0103,0.0045,-0.0148,-0.0133,-0.0208,-0.0322,-0.0319,-0.027,0,0,0,0,0,0,0.0286,0.0334,0.0372,0.0446,0.0488,0.0569,0.0621,0.0647,0.0644,0.0656,0.0546,0.0511,0.0299,0.0422,0.0092,0.0048,-0.0021,-0.0229,-0.0232,-0.0323,-0.0321,-0.0319,-0.0267,0,0,0,0,0]}]]